Miscellaneous Local Product
Issued by NWS Hastings, NE

Home | Current Version | Previous Version | Text Only | Print | Product List | Glossary On
Versions: 1 2 3 4 5 6 7 8 9 10 11 12 13 14 15 16 17 18 19 20 21 22 23 24 25 26 27 28 29 30 31 32 33 34 35 36 37 38 39 40 41 42 43 44 45 46 47 48 49 50
000
AXUS43 KGID 210402
MISGRI

GID CWA HOURLY WEATHER ROUNDUP
NATIONAL WEATHER SERVICE HASTINGS NE
1100 PM CDT FRI APR 20 2018

NOTE: "FAIR" INDICATES FEW OR NO CLOUDS BELOW 12,000 FEET WITH NO
SIGNIFICANT WEATHER AND/OR OBSTRUCTIONS TO VISIBILITY.

...SOUTH CENTRAL NEBRASKA...

CITY           SKY/WX    TMP DP  RH WIND       PRES   REMARKS
GRAND ISLAND   CLOUDY    50  30  46 E10       30.27R
KEARNEY        LGT RAIN  46  38  73 SE15      30.28R
HASTINGS       LGT RAIN  49  37  63 S16G28    30.32R
ORD            CLOUDY    44  39  82 NE8       30.27R
YORK             N/A     50  30  46 E10       30.27R
AURORA         CLOUDY    48  30  48 NE7       30.26S
LEXINGTON      LGT RAIN  43  39  85 NE14      30.24R
HOLDREGE       LGT RAIN  44  41  90 SE21      30.26R
HEBRON         CLOUDY    53  29  39 NE3       30.27R

...NEBRASKA PANHANDLE...

CITY           SKY/WX    TMP DP  RH WIND       PRES   REMARKS
CHADRON        CLOUDY    40  36  86 SE9       30.22S WCI  34
ALLIANCE       MIX PCPN  37  37 100 SE15      30.19S WCI  28
SCOTTSBLUFF    LGT RAIN  37  32  82 SE18      30.18R WCI  27
SIDNEY         CLOUDY    36  33  89 SE16      30.17R WCI  26

...WESTERN AND NORTH CENTRAL NEBRASKA...

CITY           SKY/WX    TMP DP  RH WIND       PRES   REMARKS
VALENTINE      CLOUDY    41  39  93 E6        30.28F
AINSWORTH      CLOUDY    41  38  91 E9        30.29S
ONEILL         CLOUDY    48  37  67 E9        30.31F
BROKEN BOW     CLOUDY    43  38  82 NE14      30.24S
IMPERIAL       CLOUDY    39  38  96 NE15      30.18S WCI  31
NORTH PLATTE   LGT RAIN  42  38  85 E13       30.23R
MCCOOK         LGT RAIN  42  40  92 E10       30.20R

...EASTERN NEBRASKA...

CITY           SKY/WX    TMP DP  RH WIND       PRES   REMARKS
NORFOLK        CLOUDY    48  33  56 NE13      30.30S
SO SIOUX CITY  CLOUDY    45  34  65 E12       30.33F
TEKAMAH        CLOUDY    50  31  48 NE8       30.30F
COLUMBUS       CLOUDY    48  33  56 NE6       30.30R
ALBION         CLOUDY    50  32  50 NE8       30.30R
OMAHA EPPLEY   CLOUDY    55  27  34 E14       30.30F
OFFUTT AFB     CLOUDY    53  28  38 E10       30.29F
MILLARD        CLOUDY    56  30  37 E7        30.29F
LINCOLN        CLOUDY    54  28  36 E10       30.29F
NEBRASKA CITY  CLOUDY    52  29  42 E6        30.30S
BEATRICE       CLOUDY    54  30  40 E7        30.27R
FALLS CITY     CLOUDY    50  26  39 E7        30.27S

...NORTHERN KANSAS...

CITY           SKY/WX    TMP DP  RH WIND       PRES   REMARKS
GOODLAND       LGT RAIN  40  38  93 SE20G26   30.14R WCI  30
HILL CITY      LGT RAIN  46  43  89 E12       30.22R
NORTON         LGT RAIN  45  41  87 E8        30.21S
PHILLIPSBURG   LGT RAIN  46  43  87 E17       30.23F
SMITH CENTER   RAIN      45  39  81 E8        30.26R
BELOIT         CLOUDY    54  27  35 CALM      30.24R
HAYS           LGT RAIN  46  40  79 E22       30.21F
RUSSELL        RAIN      48  41  76 SE16G35   30.23R
CONCORDIA      CLOUDY    54  26  34 SE8       30.26R
SALINA         CLOUDY    58  29  33 E13G21    30.20R
TOPEKA         PTCLDY    56  28  34 NE12      30.22F



USA.gov is the U.S. government's official web portal to all federal, state and local government web resources and services.